Location: Colossi of Memnon
(25.7167°N, 32.6167°E)
Time: 06:07:31
(UTC+00:00)

Hubble Space Telescope - Pass Details

Date: 04 October 2021
Orbit: 535 x 538 km, 28.5° (Epoch: 20 October)

Event Time Altitude Azimuth Distance (km) Brightness Sun altitude
Exits shadow 02:46:58 - 207° (SSW) 2,511 3.9 -13.5°
Reaches altitude 10° 02:49:39 10° 184° (S) 1,775 3.4 -12.9°
Maximum altitude 02:51:52 14° 152° (SSE) 1,528 3.4 -12.4°
Drops below altitude 10° 02:54:05 10° 119° (ESE) 1,777 4.4 -11.9°
Sets 02:57:14 0° 94° (E) 2,668 6.5 -11.2°
